******************************************************************************* JPL/HORIZONS Bradfield (C/1995 Q1) 2025-Dec-12 17:52:56 Rec #:90002244 (+COV) Soln.date: 2021-Apr-15_23:29:47 # obs: 156 (1995-1996) IAU76/J2000 helio. ecliptic osc. elements (au, days, deg., period=Julian yrs): EPOCH= 2450013.5 ! 1995-Oct-23.0000000 (TDB) RMSW= n.a. EC= .9980256711345538 QR= .4363869767926454 TP= 2449960.9185049776 OM= 178.0547286890203 W= 331.1618097200952 IN= 147.3943011124616 A= 221.0305407726553 MA= .01577097613545143 ADIST= 441.624694568518 PER= 3286.1443114145 N= .000299934 ANGMOM= .016062675 DAN= .4652 DDN= 6.93402 L= 202.9386798 B= -15.0647135 MOID= .44017401 TP= 1995-Aug-31.4185049776 Comet physical (GM= km^3/s^2; RAD= km): GM= n.a. RAD= n.a. M1= 9.6 M2= n.a. k1= 16.5 k2= n.a. PHCOF= n.a. COMET comments 1: soln ref.= JPL#2, data arc: 1995-08-18 to 1996-02-07 2: k1=16.5; ******************************************************************************* ******************************************************************************* Ephemeris / WWW_USER Fri Dec 12 17:52:56 2025 Pasadena, USA / Horizons ******************************************************************************* Target body name: Bradfield (C/1995 Q1) {source: JPL#2} Center body name: Solar System Barycenter (0) {source: DE441} Center-site name: BODY CENTER ******************************************************************************* Start time : A.D. 1800-Jan-01 00:00:00.0000 TDB Stop time : A.D. 2200-Jan-01 00:00:00.0000 TDB Step-size : 400 calendar years ******************************************************************************* Center geodetic : 0.0, 0.0, 0.0 {E-lon(deg),Lat(deg),Alt(km)} Center cylindric: 0.0, 0.0, 0.0 {E-lon(deg),Dxy(km),Dz(km)} Center radii : (undefined) Keplerian GM : 2.9630927493968080E-04 au^3/d^2 Small perturbers: Yes {source: SB441-N16} Output units : AU-D, deg, Julian Day Number (Tp) Calendar mode : Mixed Julian/Gregorian Output type : GEOMETRIC osculating elements Output format : 10 Reference frame : Ecliptic of J2000.0 ******************************************************************************* Initial IAU76/J2000 heliocentric ecliptic osculating elements (au, days, deg.): EPOCH= 2450013.5 ! 1995-Oct-23.0000000 (TDB) RMSW= n.a. EC= .9980256711345538 QR= .4363869767926454 TP= 2449960.9185049776 OM= 178.0547286890203 W= 331.1618097200952 IN= 147.3943011124616 Equivalent ICRF heliocentric cartesian coordinates (au, au/d): X=-2.071485626515078E-01 Y= 6.922961952611284E-01 Z= 1.020749123482644E+00 VX= 9.762173459673135E-03 VY= 1.069446500305913E-02 VZ= 1.619274208071820E-02 Comet physical (GM= km^3/s^2; RAD= km): GM= n.a. RAD= n.a. M1= 9.6 M2= n.a. k1= 16.5 k2= n.a. PHCOF= n.a. ******************************************************************************* JDTDB EC QR IN OM W Tp N MA TA A AD PR ******************************************************************************* $$SOE 2378496.500000000 = A.D. 1800-Jan-01 00:00:00.0000 TDB EC= 9.980722729712377E-01 QR= 4.324877832048368E-01 IN= 1.472659359056822E+02 OM= 1.781027336377580E+02 W = 3.312852408612017E+02 Tp= 2449960.303031674121 N = 2.934964104733923E-04 MA= 3.390256303314262E+02 TA= 1.845042855328757E+02 A = 2.243511538469959E+02 AD= 4.482698199107870E+02 PR= 1.226590810495233E+06 2524593.500000000 = A.D. 2200-Jan-01 00:00:00.0000 TDB EC= 9.977017237587369E-01 QR= 4.388271344781622E-01 IN= 1.474352582401008E+02 OM= 1.779792344858000E+02 W = 3.310684723343128E+02 Tp= 2449960.444346436765 N = 3.738164300467003E-04 MA= 2.789906242789167E+01 TA= 1.757476872970766E+02 A = 1.909375063795297E+02 AD= 3.814361856245812E+02 PR= 9.630395324117395E+05 $$EOE ******************************************************************************* TIME Barycentric Dynamical Time ("TDB" or T_eph) output was requested. This continuous coordinate time is equivalent to the relativistic proper time of a clock at rest in a reference frame co-moving with the solar system barycenter but outside the system's gravity well. It is the independent variable in the solar system relativistic equations of motion. TDB runs at a uniform rate of one SI second per second and is independent of irregularities in Earth's rotation. CALENDAR SYSTEM Mixed calendar mode was active such that calendar dates after AD 1582-Oct-15 (if any) are in the modern Gregorian system. Dates prior to 1582-Oct-5 (if any) are in the Julian calendar system, which is automatically extended for dates prior to its adoption on 45-Jan-1 BC. The Julian calendar is useful for matching historical dates. The Gregorian calendar more accurately corresponds to the Earth's orbital motion and seasons. A "Gregorian-only" calendar mode is available if such physical events are the primary interest. REFERENCE FRAME AND COORDINATES Ecliptic at the standard reference epoch Reference epoch: J2000.0 X-Y plane: adopted Earth orbital plane at the reference epoch Note: IAU76 obliquity of 84381.448 arcseconds wrt ICRF X-Y plane X-axis : ICRF Z-axis : perpendicular to the X-Y plane in the directional (+ or -) sense of Earth's north pole at the reference epoch. Symbol meaning [1 au= 149597870.700 km, 1 day= 86400.0 s]: JDTDB Julian Day Number, Barycentric Dynamical Time EC Eccentricity, e QR Periapsis distance, q (au) IN Inclination w.r.t X-Y plane, i (degrees) OM Longitude of Ascending Node, OMEGA, (degrees) W Argument of Perifocus, w (degrees) Tp Time of periapsis (Julian Day Number) N Mean motion, n (degrees/day) MA Mean anomaly, M (degrees) TA True anomaly, nu (degrees) A Semi-major axis, a (au) AD Apoapsis distance (au) PR Sidereal orbit period (day) ABERRATIONS AND CORRECTIONS Geometric osculating elements have NO corrections or aberrations applied. Computations by ... Solar System Dynamics Group, Horizons On-Line Ephemeris System 4800 Oak Grove Drive, Jet Propulsion Laboratory Pasadena, CA 91109 USA General site: https://ssd.jpl.nasa.gov/ Mailing list: https://ssd.jpl.nasa.gov/email_list.html System news : https://ssd.jpl.nasa.gov/horizons/news.html User Guide : https://ssd.jpl.nasa.gov/horizons/manual.html Connect : browser https://ssd.jpl.nasa.gov/horizons/app.html#/x API https://ssd-api.jpl.nasa.gov/doc/horizons.html command-line telnet ssd.jpl.nasa.gov 6775 e-mail/batch https://ssd.jpl.nasa.gov/ftp/ssd/horizons_batch.txt scripts https://ssd.jpl.nasa.gov/ftp/ssd/SCRIPTS Author : Jon.D.Giorgini@jpl.nasa.gov ******************************************************************************* !$$SOF CENTER = '@0' COMMAND = '1995 Q1' OUT_UNITS = 'AU-D' START_TIME = '1800-01-01' STEP_SIZE = '400 years' STOP_TIME = '2200-01-01' TABLE_TYPE = 'ELEMENTS'